Regional Weather Roundup
Issued by NWS

Home | Current Version | Previous Version | Graphics & Text | Print | Product List | Glossary On
Versions: 1 2 3 4 5 6 7 8 9 10 11 12 13 14 15 16 17 18 19 20 21 22 23 24 25 26 27 28 29 30 31 32 33 34 35 36 37 38 39 40 41 42 43 44 45 46 47 48 49 50
000
ASUS43 KBIS 241802
RWRND

NORTH DAKOTA REGIONAL WEATHER ROUNDUP
NATIONAL WEATHER SERVICE BISMARCK ND
1200 PM CST FRI NOV 24 2017

NOTE: "FAIR" INDICATES FEW OR NO CLOUDS BELOW 12,000 FEET WITH NO
SIGNIFICANT WEATHER AND/OR OBSTRUCTIONS TO VISIBILITY.


NDZ001>003-009>011-017-241900-
NORTHWEST NORTH DAKOTA

CITY           SKY/WX    TMP DP  RH WIND       PRES   REMARKS
WILLISTON      SUNNY     48  36  63 W20G28    29.70R
6HR MIN TEMP:  38; 6HR MAX TEMP:  48; 6HR PCP: TRACE;

MINOT          SUNNY     49  38  65 W22G30    29.58R
MINOT AFB      SUNNY     47  38  71 W23G31    29.56R
$$

NDZ018>021-031>035-040>046-241900-
SOUTHWEST NORTH DAKOTA

CITY           SKY/WX    TMP DP  RH WIND       PRES   REMARKS
BISMARCK       SUNNY     52  39  61 NW16      29.65R
6HR MIN TEMP:  46; 6HR MAX TEMP:  55; 6HR PCP: TRACE;

DICKINSON      PTSUNNY   47  37  68 NW25G33   29.68R
GARRISON         N/A     46  38  73 W22G32    29.62R
6HR MIN TEMP:  39; 6HR MAX TEMP:  46; 6HR PCP:  0.02;

HETTINGER ARPT PTSUNNY   48  36  63 NW23G37   29.74R
$$

NDZ004>008-012>016-024-026-027-054-241900-
NORTHEAST NORTH DAKOTA

CITY           SKY/WX    TMP DP  RH WIND       PRES   REMARKS
GRAND FORKS    MOSUNNY   44  38  79 NW17      29.43R
GRND FRKS AFB  CLOUDY    45  37  73 NW16G26   29.44R
DEVILS LAKE    SUNNY     42  36  79 NW23G29   29.50R
$$

NDZ022-023-025-028>030-036>039-047>053-241900-
SOUTHEAST NORTH DAKOTA

CITY           SKY/WX    TMP DP  RH WIND       PRES   REMARKS
FARGO          CLOUDY    45  42  89 NW15      29.45R
6HR MIN TEMP:  42; 6HR MAX TEMP:  48; 6HR PCP:  0.03;

JAMESTOWN      SUNNY     47  38  71 NW25      29.53R
$$




USA.gov is the U.S. government's official web portal to all federal, state and local government web resources and services.